| time (UTC) | temp F | wind direction | speed knots | gust knots | rain 1hr in | rain 24hr in | rain mn in | humidity % | barometer mb |
| 20260502123006 | 64 | 239 | 0.9 | 3.5 | 0.00 | 0.00 | 0.00 | 56 | 1021.7 |
| 20260502114506 | 61 | 247 | 0.9 | 3.5 | 0.00 | 0.00 | 0.00 | 60 | 1021.9 |
| 20260502113005 | 61 | 271 | 0.9 | 2.6 | 0.00 | 0.00 | 0.00 | 60 | 1022.1 |
| 20260502071506 | 55 | 275 | 0.9 | 3.5 | 0.00 | 0.00 | 0.00 | 81 | 1022.7 |
| 20260502063005 | 54 | 249 | 0.0 | 1.7 | 0.00 | 0.00 | 0.00 | 84 | 1022.6 |
| 20260502060006 | 54 | 267 | 0.9 | 2.6 | 0.00 | 0.00 | 0.00 | 86 | 1022.6 |
| 20260502044505 | 54 | 0 | 0.0 | 0.0 | 0.00 | 0.00 | 0.00 | 87 | 1022.3 |
| 20260502041505 | 55 | 303 | 0.0 | 1.7 | 0.00 | 0.00 | 0.00 | 85 | 1022.0 |
| 20260502040005 | 55 | 0 | 0.0 | 0.0 | 0.00 | 0.00 | 0.00 | 85 | 1022.2 |
| 20260502023005 | 56 | 262 | 0.0 | 2.6 | 0.00 | 0.00 | 0.00 | 87 | 1022.5 |
| 20260502013005 | 55 | 0 | 0.0 | 0.0 | 0.00 | 0.00 | 0.00 | 88 | 1022.8 |
| 20260502003005 | 55 | 0 | 0.0 | 0.0 | 0.00 | 0.00 | 0.00 | 86 | 1023.5 |
| 20260502000005 | 55 | 209 | 0.0 | 0.9 | 0.00 | 0.00 | 0.00 | 86 | 1023.5 |
| 20260501233005 | 55 | 251 | 0.0 | 1.7 | 0.00 | 0.00 | 0.00 | 85 | 1023.8 |
| 20260501223005 | 54 | 263 | 1.7 | 4.3 | 0.00 | 0.00 | 0.00 | 84 | 1023.5 |
| 20260501214504 | 53 | 0 | 0.0 | 0.0 | 0.00 | 0.00 | 0.00 | 86 | 1023.6 |
| 20260501211505 | 54 | 260 | 0.9 | 2.6 | 0.00 | 0.00 | 0.00 | 85 | 1023.6 |
| 20260501204505 | 55 | 260 | 0.0 | 1.7 | 0.00 | 0.00 | 0.00 | 81 | 1023.5 |
| 20260501203005 | 55 | 252 | 0.0 | 4.3 | 0.00 | 0.00 | 0.00 | 80 | 1023.5 |
| 20260501200004 | 56 | 250 | 0.9 | 2.6 | 0.00 | 0.00 | 0.00 | 76 | 1023.2 |
| 20260501184505 | 60 | 257 | 1.7 | 3.5 | 0.00 | 0.00 | 0.00 | 68 | 1022.4 |
| 20260501183005 | 60 | 266 | 0.9 | 3.5 | 0.00 | 0.00 | 0.00 | 68 | 1022.3 |
| 20260501180005 | 62 | 263 | 0.9 | 4.3 | 0.00 | 0.00 | 0.00 | 66 | 1022.1 |
| 20260501174505 | 62 | 255 | 0.9 | 3.5 | 0.00 | 0.00 | 0.00 | 65 | 1022.1 |
| 20260501173005 | 62 | 248 | 1.7 | 5.2 | 0.00 | 0.00 | 0.00 | 65 | 1022.0 |
| 20260501170004 | 63 | 248 | 0.9 | 2.6 | 0.00 | 0.00 | 0.00 | 65 | 1021.8 |
| 20260501163006 | 64 | 232 | 1.7 | 2.6 | 0.00 | 0.00 | 0.00 | 62 | 1021.8 |
| 20260501160007 | 65 | 240 | 1.7 | 6.1 | 0.00 | 0.00 | 0.00 | 62 | 1021.7 |
| 20260501150006 | 65 | 273 | 2.6 | 6.1 | 0.00 | 0.00 | 0.00 | 63 | 1021.6 |